TimeCST,TemperatureF,Dew PointF,Humidity,Sea Level PressureIn,VisibilityMPH,Wind Direction,Wind SpeedMPH,Gust SpeedMPH,PrecipitationIn,Events,Conditions,WindDirDegrees,DateUTC
12:14 AM,12.2,8.6,85,29.93,10.0,SW,4.6,-,N/A,,Clear,230,2013-01-02 06:14:00
12:34 AM,12.2,8.6,85,29.92,10.0,SSW,3.5,-,N/A,,Clear,210,2013-01-02 06:34:00
12:54 AM,12.2,8.6,85,29.91,10.0,SW,4.6,-,N/A,,Clear,230,2013-01-02 06:54:00
1:14 AM,12.2,8.6,85,29.91,10.0,SW,5.8,-,N/A,,Clear,230,2013-01-02 07:14:00
1:33 AM,10.4,6.8,85,29.90,10.0,WSW,5.8,-,N/A,,Clear,240,2013-01-02 07:33:00
1:54 AM,12.2,8.6,85,29.90,10.0,SW,6.9,-,N/A,,Clear,230,2013-01-02 07:54:00
2:14 AM,8.6,5.0,85,29.90,10.0,Calm,Calm,-,N/A,,Clear,0,2013-01-02 08:14:00
2:33 AM,8.6,5.0,85,29.91,10.0,Calm,Calm,-,N/A,,Clear,0,2013-01-02 08:33:00
2:54 AM,8.6,5.0,85,29.91,10.0,Calm,Calm,-,N/A,,Scattered Clouds,0,2013-01-02 08:54:00
3:14 AM,8.6,5.0,85,29.90,10.0,South,4.6,-,N/A,,Mostly Cloudy,190,2013-01-02 09:14:00
3:33 AM,10.4,6.8,85,29.90,10.0,SSW,3.5,-,N/A,,Overcast,210,2013-01-02 09:33:00
3:54 AM,12.2,10.4,92,29.90,10.0,WSW,5.8,-,N/A,,Overcast,240,2013-01-02 09:54:00
4:14 AM,12.2,8.6,85,29.89,10.0,SW,4.6,-,N/A,,Overcast,230,2013-01-02 10:14:00
4:34 AM,14.0,8.6,79,29.89,10.0,SW,3.5,-,N/A,,Overcast,230,2013-01-02 10:34:00
4:54 AM,14.0,8.6,79,29.88,10.0,South,4.6,-,N/A,,Overcast,190,2013-01-02 10:54:00
5:13 AM,15.8,10.4,79,29.88,10.0,SSW,4.6,-,N/A,Snow,Light Snow,200,2013-01-02 11:13:00
5:34 AM,15.8,12.2,86,29.88,7.0,SSW,4.6,-,N/A,Snow,Light Snow,200,2013-01-02 11:34:00
6:13 AM,19.4,15.8,86,29.88,5.0,SW,5.8,-,N/A,Snow,Light Snow,220,2013-01-02 12:13:00
6:34 AM,19.4,15.8,86,29.87,7.0,WSW,4.6,-,N/A,Snow,Light Snow,240,2013-01-02 12:34:00
6:53 AM,19.4,17.6,93,29.87,10.0,WSW,5.8,-,N/A,,Overcast,250,2013-01-02 12:53:00
7:14 AM,21.2,17.6,86,29.87,10.0,West,5.8,-,N/A,,Overcast,270,2013-01-02 13:14:00
7:34 AM,24.8,19.4,80,29.88,10.0,West,6.9,-,N/A,,Overcast,280,2013-01-02 13:34:00
7:53 AM,24.8,21.2,86,29.88,10.0,WNW,8.1,-,N/A,,Overcast,290,2013-01-02 13:53:00
8:14 AM,26.6,21.2,80,29.88,10.0,WNW,8.1,-,N/A,,Overcast,290,2013-01-02 14:14:00
8:34 AM,26.6,21.2,80,29.88,10.0,WNW,9.2,-,N/A,,Overcast,290,2013-01-02 14:34:00
8:54 AM,26.6,23.0,86,29.89,10.0,WNW,8.1,-,N/A,,Overcast,290,2013-01-02 14:54:00
9:14 AM,28.4,23.0,80,29.90,10.0,WNW,8.1,-,N/A,,Overcast,300,2013-01-02 15:14:00
9:33 AM,28.4,23.0,80,29.90,10.0,WNW,10.4,-,N/A,,Overcast,300,2013-01-02 15:33:00
9:54 AM,28.4,23.0,80,29.91,10.0,WNW,9.2,-,N/A,,Overcast,300,2013-01-02 15:54:00
10:14 AM,28.4,21.2,74,29.92,10.0,NW,10.4,-,N/A,,Overcast,310,2013-01-02 16:14:00
10:33 AM,30.2,21.2,69,29.93,10.0,NW,8.1,-,N/A,,Overcast,310,2013-01-02 16:33:00
10:54 AM,30.2,23.0,75,29.93,10.0,WNW,9.2,-,N/A,,Overcast,300,2013-01-02 16:54:00
11:13 AM,30.2,23.0,75,29.92,10.0,NW,10.4,-,N/A,,Overcast,310,2013-01-02 17:13:00
11:34 AM,30.2,23.0,75,29.92,10.0,WNW,6.9,-,N/A,,Overcast,290,2013-01-02 17:34:00
11:54 AM,30.2,24.8,80,29.92,10.0,WNW,9.2,-,N/A,,Overcast,300,2013-01-02 17:54:00
12:14 PM,30.2,24.8,80,29.92,10.0,NW,11.5,-,N/A,,Overcast,320,2013-01-02 18:14:00
12:34 PM,28.4,21.2,74,29.92,10.0,NNW,17.3,20.7,N/A,,Overcast,330,2013-01-02 18:34:00
12:53 PM,28.4,21.2,74,29.92,10.0,NW,13.8,21.9,N/A,,Overcast,320,2013-01-02 18:53:00
1:14 PM,28.4,19.4,69,29.93,10.0,NW,16.1,23.0,N/A,,Overcast,320,2013-01-02 19:14:00
1:34 PM,28.4,19.4,69,29.94,10.0,NW,15.0,20.7,N/A,,Overcast,320,2013-01-02 19:34:00
1:54 PM,28.4,19.4,69,29.95,10.0,NNW,17.3,24.2,N/A,,Mostly Cloudy,330,2013-01-02 19:54:00
2:14 PM,28.4,17.6,64,29.95,10.0,NW,16.1,23.0,N/A,,Scattered Clouds,320,2013-01-02 20:14:00
2:33 PM,26.6,17.6,69,29.96,10.0,NW,15.0,20.7,N/A,,Scattered Clouds,320,2013-01-02 20:33:00
2:54 PM,26.6,17.6,69,29.97,10.0,NNW,17.3,24.2,N/A,,Mostly Cloudy,330,2013-01-02 20:54:00
3:14 PM,26.6,17.6,69,29.98,10.0,NW,11.5,-,N/A,,Overcast,320,2013-01-02 21:14:00
3:33 PM,26.6,17.6,69,29.99,10.0,NW,13.8,-,N/A,,Overcast,320,2013-01-02 21:33:00
3:54 PM,26.6,17.6,69,30.00,10.0,NW,13.8,-,N/A,,Overcast,320,2013-01-02 21:54:00
4:14 PM,24.8,17.6,74,30.01,10.0,NW,12.7,-,N/A,,Overcast,320,2013-01-02 22:14:00
4:34 PM,24.8,17.6,74,30.02,10.0,NNW,11.5,17.3,N/A,Snow,Light Snow,340,2013-01-02 22:34:00
4:54 PM,24.8,17.6,74,30.02,5.0,NNW,8.1,-,N/A,Snow,Light Snow,340,2013-01-02 22:54:00
5:13 PM,24.8,17.6,74,30.03,7.0,NW,3.5,-,N/A,Snow,Light Snow,320,2013-01-02 23:13:00
5:34 PM,24.8,19.4,80,30.03,10.0,Calm,Calm,-,N/A,,Overcast,0,2013-01-02 23:34:00
5:54 PM,24.8,19.4,80,30.04,10.0,North,3.5,-,N/A,,Overcast,350,2013-01-02 23:54:00
6:14 PM,23.0,15.8,74,30.05,10.0,North,11.5,-,N/A,,Overcast,350,2013-01-03 00:14:00
6:54 PM,19.4,14.0,80,30.08,10.0,North,15.0,-,N/A,,Overcast,350,2013-01-03 00:54:00
7:14 PM,19.4,12.2,74,30.09,10.0,NNW,15.0,-,N/A,,Overcast,340,2013-01-03 01:14:00
7:33 PM,19.4,12.2,74,30.10,10.0,NNW,16.1,-,N/A,,Overcast,340,2013-01-03 01:33:00
7:54 PM,17.6,10.4,73,30.11,10.0,NNW,15.0,-,N/A,,Scattered Clouds,340,2013-01-03 01:54:00
8:13 PM,15.8,8.6,73,30.12,10.0,NNW,10.4,-,N/A,,Scattered Clouds,340,2013-01-03 02:13:00
8:34 PM,15.8,8.6,73,30.14,10.0,NNW,10.4,-,N/A,,Overcast,340,2013-01-03 02:34:00
8:53 PM,15.8,8.6,73,30.14,10.0,NNW,9.2,-,N/A,Snow,Light Snow,340,2013-01-03 02:53:00
9:13 PM,15.8,8.6,73,30.15,10.0,NNW,13.8,-,N/A,Snow,Light Snow,340,2013-01-03 03:13:00
9:34 PM,12.2,6.8,79,30.15,10.0,NW,11.5,16.1,N/A,,Overcast,320,2013-01-03 03:34:00
9:54 PM,12.2,6.8,79,30.16,10.0,NW,12.7,18.4,N/A,Snow,Light Snow,320,2013-01-03 03:54:00
10:14 PM,12.2,6.8,79,30.17,10.0,NNW,12.7,19.6,N/A,Snow,Light Snow,330,2013-01-03 04:14:00
10:34 PM,10.4,5.0,79,30.18,10.0,NW,13.8,-,N/A,,Mostly Cloudy,320,2013-01-03 04:34:00
10:54 PM,10.4,3.2,73,30.19,10.0,NW,11.5,-,N/A,,Mostly Cloudy,320,2013-01-03 04:54:00
11:14 PM,8.6,3.2,79,30.20,10.0,NW,10.4,-,N/A,,Scattered Clouds,320,2013-01-03 05:14:00
11:33 PM,8.6,3.2,79,30.21,10.0,NW,10.4,-,N/A,,Scattered Clouds,320,2013-01-03 05:33:00
11:54 PM,8.6,3.2,79,30.21,10.0,NW,12.7,17.3,N/A,,Scattered Clouds,320,2013-01-03 05:54:00